YAOGAN-29

Last updated on Sat Oct 25 2025 00:02:16 GMT+0000 (Coordinated Universal Time)

1 41038U 15069A 25297.69480809 .00000710 00000+0 94452-4 0 9991 2 41038 98.0274 320.6954 0002870 80.4917 279.6620 14.82801245535722
UTC large
Height (km)
Speed (km/s)
/
Latitude / Longitude
Inclination (degrees)
Orbital Period (minutes)
Azimuth
Elevation
Range (km)
Doppler Factor

Next 0 passes for location: London (51.5072 / 0.1276)

Sorry there are no passes over London.